sat.trackr.live / text

‹ back to catalog

STARLINK-31801

NORAD 59647 · 2024-082S

PAYLOAD ACTIVE UNKNOWN

§ Identity

Operator
Country
US
Launch date
2024-05-03
Launch site
AFETR
Launch vehicle
Mass (kg)
RCS (m²)

Purposes: comms

External: N2YO · Heavens-Above · Gunter

§ Orbital elements

Epoch: 2026-05-25T04:06:40.574016Z

Period
94.27 min
Inclination
43.0042°
Eccentricity
0.0000877
Mean motion
15.27571217 rev/d
Perigee alt
482.5 km
Apogee alt
483.7 km
Semi-major
6,861.2 km
B*
8.1774e-5
RAAN
68.3201°
Arg perigee
277.7003°
Mean anomaly
82.3749°
Rev number
11,655

§ Raw data

STARLINK-318011 59647U 24082S   26145.17130294  .00001988  00000+0  81774-4 0  99982 59647  43.0042  68.3201 0000877 277.7003  82.3749 15.27571217116553

JSON: /api/v1/satellites/59647 · /tle

For live sub-satellite position, see the globe view (requires WebGL).

§ Visibility from observer

Set your observer location to see the next 7 days of passes ≥ 10°. The values pass through the URL so the page stays shareable.

No JS? Fill the form by hand. The geolocation button needs JavaScript.